Location: Jack Pine
(43.3260°N, 110.4341°W)
Time: 15:58:33
(UTC+00:00)

ISS - Visible Passes

Search period start: 22 January 2022 00:00
Search period end: 01 February 2022 00:00
Orbit: 413 x 422 km, 51.6° (Epoch: 22 January)

Date Brightness Start Highest point End Pass type
(mag) Time Alt. Az. Time Alt. Az. Time Alt. Az.
22 Jan -3.0 01:46:10 10° W 01:49:23 44° NNW 01:50:36 30° NNE visible
23 Jan -3.6 00:58:01 10° WSW 01:01:20 67° NNW 01:04:38 10° NE visible
23 Jan -1.4 02:35:52 10° WNW 02:37:34 19° NW 02:37:34 19° NW visible
24 Jan -2.2 01:47:30 10° WNW 01:50:22 26° NNW 01:51:34 21° NNE visible
25 Jan -2.5 00:59:09 10° W 01:02:13 33° NNW 01:05:17 10° NE visible
25 Jan -1.2 02:37:11 10° NW 02:38:27 16° NNW 02:38:27 16° NNW visible
26 Jan -1.9 01:48:53 10° WNW 01:51:26 20° N 01:52:23 18° NNE visible
27 Jan -2.0 01:00:30 10° WNW 01:03:12 22° NNW 01:05:54 10° NE visible
27 Jan -1.2 02:38:08 10° NW 02:39:14 16° NNW 02:39:14 16° NNW visible
28 Jan -2.0 01:49:58 10° NW 01:52:30 19° N 01:53:09 18° NNE visible
29 Jan -1.9 01:01:43 10° NW 01:04:13 19° N 01:06:43 10° NE visible
29 Jan -1.5 02:38:44 10° NW 02:40:01 19° NNW 02:40:01 19° NNW visible
30 Jan -2.3 01:50:41 10° NW 01:53:28 24° NNE 01:54:00 23° NNE visible
31 Jan -2.1 01:02:35 10° NW 01:05:11 21° N 01:07:48 10° ENE visible
31 Jan -2.0 02:39:11 10° NW 02:40:57 28° NW 02:40:57 28° NW visible
